Wind_Speed
2 1 2 2 1 0 1 2 3 5 7 8 8 9 10 9 9 8 8 7 7 6 6 5 5 4 5 5 5 5 5 5 5 5 4 4 5 5 5 4 5 5 5 5 6 6 7 7 7
5 4 5 5 4 3 2 1 1 2 4 5 7 8 9 9 9 9 8 8 7 6 6 5 5 5 5 5 5 5 5 4 5 4 4 4 4 4 4 4 4 4 5 5 5 5 5 5 5
7 6 7 8 8 6 6 4 3 2 3 4 6 7 9 9 9 9 9 8 8 7 6 5 5 5 5 5 5 5 5 5 5 5 5 5 5 5 6 5 6 6 6 6 6 6 6 6 5
9 9 9 10 10 10 9 8 7 5 4 4 6 8 9 9 10 10 10 8 9 8 7 6 5 6 5 5 6 6 6 6 6 7 7 7 7 7 7 7 8 8 8 9 9 8 8 8 8
11 11 12 13 14 13 12 12 10 8 6 6 7 7 9 10 11 11 10 9 10 9 7 7 7 7 6 6 6 7 7 7 8 8 8 8 9 9 9 9 9 10 10 11 11 11 11 11 10
14 13 15 16 17 17 17 15 13 11 9 9 9 9 9 10 11 12 12 10 10 10 9 8 8 8 8 8 8 8 9 9 9 10 10 10 10 11 11 11 12 12 13 13 13 13 13 13 13
17 16 16 19 20 20 20 17 15 14 12 11 11 10 10 11 12 13 13 12 11 11 11 11 11 10 10 9 9 10 10 11 11 11 11 12 12 13 13 14 15 15 15 15 15 15 15 15 15
20 18 19 21 23 23 23 21 19 17 15 14 13 12 12 13 12 13 13 13 13 14 13 13 13 13 12 12 12 12 12 13 13 13 13 14 15 16 16 16 17 17 17 17 18 18 17 17 16
23 21 21 23 26 26 26 24 22 21 18 15 14 14 14 13 14 14 15 15 16 16 15 15 14 14 15 16 16 15 15 15 15 16 16 16 17 18 18 18 19 19 20 20 20 19 19 19 19
26 24 24 26 29 30 29 27 25 22 19 17 16 16 15 15 16 17 17 18 18 18 17 16 17 18 19 19 20 20 19 19 19 19 19 19 19 20 20 21 21 22 22 22 22 22 21 21 22
27 26 27 29 31 32 31 30 28 25 23 20 18 17 16 16 17 19 19 19 19 18 17 18 19 21 21 21 22 22 22 22 21 22 22 22 22 22 23 24 25 25 25 25 25 24 24 24 24
26 26 27 29 30 31 32 31 30 27 24 23 21 19 19 19 20 21 22 21 20 20 20 19 21 23 23 23 23 22 23 24 23 23 24 24 24 25 25 25 25 26 26 26 27 26 25 25 26
23 24 25 27 30 31 31 31 31 29 27 25 24 22 22 22 23 23 24 23 21 21 21 20 22 23 25 24 24 24 24 24 24 25 24 25 26 26 27 27 27 27 27 28 27 27 26 27 28
18 19 21 25 28 29 30 31 31 30 28 27 26 25 24 25 24 23 23 23 21 21 20 21 22 23 24 23 24 24 24 24 24 26 27 27 28 28 28 28 28 29 29 29 28 27 29 29 29
12 14 17 20 23 26 28 29 29 28 29 28 27 26 26 25 25 23 22 21 21 20 21 22 22 22 23 23 23 24 24 26 27 27 27 28 28 29 28 29 29 29 30 30 30 29 30 30 30
9 10 12 15 18 21 23 24 25 26 27 27 27 26 25 24 23 21 20 20 20 20 21 21 21 21 22 23 24 25 26 27 27 27 28 29 29 29 30 30 31 31 32 32 31 31 31 31 31
8 9 10 12 15 18 20 21 22 23 24 24 25 24 24 24 23 21 21 20 20 20 20 21 21 21 22 23 24 24 26 27 28 29 29 30 31 31 32 33 33 34 34 33 32 33 32 32 32
7 8 9 10 12 15 18 19 20 21 22 22 22 22 23 22 22 21 20 20 19 18 19 20 20 21 22 23 24 26 27 29 30 31 32 33 34 34 35 35 35 35 35 35 34 35 34 34 34
7 7 8 9 11 13 14 17 19 21 21 22 22 22 22 22 21 19 19 19 19 19 19 20 21 22 23 25 26 28 29 30 32 33 34 35 36 36 37 37 37 37 37 37 37 37 36 36 36
7 7 7 7 8 10 12 15 17 19 20 19 19 20 19 19 17 18 19 17 18 19 19 21 22 24 25 27 29 30 32 33 34 36 37 37 38 38 38 38 38 38 38 38 38 38 38 37 37
6 5 5 5 7 8 10 11 13 15 16 16 17 17 16 17 18 17 17 17 17 18 20 22 24 26 27 29 30 32 33 34 35 36 37 37 38 38 38 38 38 39 39 39 39 39 38 38 38
6 5 5 5 6 6 7 8 8 9 11 12 13 13 14 15 15 15 15 16 18 19 22 23 25 27 28 30 31 33 34 35 36 36 37 37 37 37 37 37 37 37 37 37 38 38 38 38 38
6 5 4 4 4 4 4 5 4 4 4 7 8 9 10 11 12 12 14 16 18 20 21 23 25 26 28 30 31 33 34 34 35 35 35 35 36 36 36 36 35 35 35 35 36 36 37 37 37
6 4 3 3 3 2 2 3 4 4 4 5 6 7 9 10 11 12 13 15 17 19 21 23 25 27 28 30 31 32 32 32 33 33 33 34 34 34 35 35 35 35 36 36 36 36 37 37 37
5 4 3 2 2 2 3 4 4 4 3 4 5 7 8 9 11 12 14 16 18 20 22 24 26 28 29 30 31 31 32 32 32 33 33 33 34 35 35 36 36 36 37 37 37 37 37 37 37
6 5 4 4 4 4 4 5 5 5 5 5 6 7 9 10 12 13 15 17 19 21 24 26 27 29 30 31 31 31 32 32 33 33 34 34 35 36 36 37 37 38 37 38 38 38 38 37 37
5 5 5 5 5 5 4 5 6 6 6 7 8 9 10 12 13 14 16 18 21 23 25 27 29 30 31 31 32 32 32 33 33 34 35 36 36 36 37 38 38 39 39 39 38 38 39 39 38
6 7 6 5 5 4 4 4 6 7 7 8 9 10 11 11 13 15 18 20 23 25 27 29 31 31 32 32 33 33 34 34 35 36 37 37 37 38 38 39 39 39 39 39 38 38 39 40 40
7 7 7 6 6 5 4 4 6 7 8 10 10 11 12 13 15 18 20 23 25 27 30 31 32 33 33 34 34 35 36 36 37 38 38 38 38 39 39 39 39 39 38 38 39 39 39 40 41
6 7 6 5 5 5 6 7 8 9 10 11 12 13 14 16 18 20 23 25 27 29 31 33 34 34 35 35 36 37 38 39 39 40 40 40 40 40 40 39 39 39 39 39 39 39 40 40 41
Wind_Direction
359 312 280 277 275 9 35 65 48 43 41 34 25 17 10 9 5 0 355 355 356 351 343 341 341 345 353 360 4 8 13 18 23 25 25 23 20 16 13 10 7 6 6 8 12 14 16 18 21
328 302 279 272 262 260 270 282 23 41 36 26 17 8 359 355 356 352 344 341 339 335 329 327 329 332 337 339 342 343 346 350 356 358 356 353 350 345 341 335 330 333 335 336 340 343 347 350 355
312 292 273 270 263 258 257 262 279 308 347 8 7 2 353 349 348 346 343 337 330 322 316 316 320 322 323 323 325 326 327 328 331 331 330 329 328 323 318 314 313 312 311 311 312 313 315 316 315
298 285 269 262 260 260 258 263 272 277 295 326 340 349 348 346 343 338 337 331 324 316 307 306 311 309 308 308 310 309 308 311 313 312 311 311 311 311 310 307 307 306 304 301 298 295 294 293 293
290 278 266 258 258 258 256 259 263 263 274 298 314 329 336 336 334 332 332 329 322 314 306 303 303 297 294 297 297 296 296 300 302 303 304 305 305 304 302 302 301 301 299 297 295 291 285 282 279
283 275 262 253 254 255 255 259 257 256 262 276 290 304 318 324 328 330 329 325 322 314 303 297 292 287 284 285 286 287 289 291 294 295 296 298 301 300 298 298 298 297 295 293 292 290 286 279 276
278 271 257 249 248 251 252 254 250 252 255 266 278 290 305 316 321 323 324 321 317 312 304 296 289 281 279 278 279 280 283 286 288 288 290 293 295 295 294 295 294 293 293 292 290 288 285 281 276
274 265 252 242 241 245 249 249 250 250 256 266 270 282 296 303 309 315 318 316 311 307 304 295 288 276 271 271 272 272 274 279 282 283 285 289 291 292 292 293 293 292 291 289 288 285 283 281 279
270 260 247 237 236 241 245 245 248 252 255 260 270 279 290 299 307 311 310 307 304 299 297 292 286 276 271 269 267 268 269 272 275 278 281 283 285 288 289 290 290 291 290 288 286 285 284 281 280
267 257 243 237 235 237 241 245 247 249 251 252 263 274 282 290 298 302 303 299 295 292 291 285 280 279 274 269 269 268 268 269 270 272 274 278 282 283 285 286 287 288 288 287 283 281 282 280 280
263 254 243 238 237 237 239 243 247 248 249 254 263 271 278 287 290 294 300 300 300 296 292 286 277 277 275 275 276 270 269 270 271 270 272 275 278 282 284 285 284 285 286 286 282 279 280 280 280
261 252 243 240 239 238 238 242 245 248 252 258 264 270 275 281 286 291 295 295 295 294 291 288 284 277 273 273 275 276 274 273 273 276 275 275 277 279 281 284 284 282 284 285 282 279 280 279 279
262 255 246 240 239 239 239 241 246 251 255 259 264 268 272 279 285 290 293 294 293 290 289 287 283 280 279 279 279 281 276 277 275 278 279 278 279 280 280 281 282 282 282 285 283 280 279 278 278
267 258 248 241 238 239 240 243 247 252 257 262 267 271 276 282 286 289 291 294 293 292 289 288 285 282 282 281 282 282 279 279 282 282 280 280 279 280 280 284 282 283 283 283 283 282 280 278 276
274 263 253 245 241 241 243 245 248 253 258 264 269 273 278 282 285 286 288 291 291 289 289 289 286 285 285 287 286 285 285 284 283 284 286 288 284 284 286 286 285 286 287 286 283 281 279 277 276
283 275 264 253 244 243 245 248 251 255 261 267 271 275 279 283 285 287 288 290 290 290 292 292 291 292 293 293 291 289 288 289 290 292 293 292 292 291 291 289 288 288 288 286 283 282 281 277 274
281 276 272 262 252 248 248 251 255 260 265 268 271 276 278 283 286 288 287 288 289 291 292 293 296 297 297 297 297 295 294 295 295 294 294 294 293 293 292 289 287 288 287 284 282 280 278 276 273
284 277 270 262 255 251 251 254 259 261 265 269 272 277 277 284 285 287 289 291 293 295 297 300 299 298 297 298 298 298 296 296 297 296 295 295 294 293 291 289 287 286 285 283 280 278 275 274 272
296 286 273 262 257 252 255 261 264 264 267 270 275 278 277 278 283 286 292 294 296 301 303 305 305 305 304 303 304 303 301 300 299 297 297 296 294 292 290 289 287 286 284 282 279 277 274 273 271
306 296 277 270 263 259 263 267 268 268 268 270 274 278 282 286 290 292 298 298 299 304 307 309 309 309 308 308 307 306 305 302 300 299 298 296 295 293 291 290 288 286 284 281 279 276 274 272 270
312 311 298 288 280 275 280 283 278 270 267 267 272 276 278 286 293 297 301 301 305 309 311 312 312 311 310 309 309 307 306 304 301 299 298 297 295 294 292 290 288 286 283 281 279 276 274 271 269
336 327 313 308 303 296 305 309 297 274 266 263 272 278 281 291 296 297 299 305 310 312 312 311 310 310 309 308 308 307 305 303 302 300 299 298 296 294 292 290 288 285 283 280 278 276 273 270 268
347 334 322 318 312 303 304 316 333 321 285 263 271 278 284 292 298 300 303 307 309 309 309 310 310 310 308 307 307 306 305 303 302 300 300 299 297 295 294 292 290 287 283 280 278 276 273 270 268
349 346 344 354 358 11 344 339 357 338 324 300 287 287 293 296 303 309 310 308 308 309 310 312 313 312 311 310 310 309 308 306 304 303 301 300 299 297 295 293 291 288 285 282 278 275 273 270 267
345 350 343 353 0 358 0 354 358 346 324 316 302 292 294 298 303 306 306 307 310 313 315 317 317 316 315 315 314 313 312 310 308 307 305 303 301 300 298 295 293 290 287 283 279 275 272 269 266
337 345 337 327 327 326 340 344 346 331 315 307 296 292 297 302 304 304 307 313 317 319 320 321 322 321 320 319 318 317 316 314 312 310 308 305 304 302 299 297 294 291 288 284 280 275 272 268 265
325 332 330 322 322 324 328 328 321 314 305 300 295 295 299 302 304 309 316 320 323 325 325 325 326 325 324 324 323 320 319 317 315 313 311 309 306 304 301 298 296 292 289 285 281 276 272 268 265
312 318 322 327 330 324 311 312 307 299 300 300 297 299 303 309 316 322 326 327 329 330 330 330 329 328 328 327 325 324 322 320 318 317 314 312 308 306 303 300 297 293 290 287 283 278 273 269 266
299 307 314 322 334 336 329 326 318 315 310 309 310 314 319 325 329 331 331 332 332 333 333 332 331 330 330 329 328 327 326 323 321 319 316 313 310 308 305 302 299 295 291 288 284 279 275 271 268
290 298 307 320 334 338 338 341 332 328 322 320 322 326 329 333 334 334 334 334 334 334 334 334 333 332 332 331 330 329 327 325 323 320 318 315 312 310 307 304 300 296 292 289 285 281 277 274 270
Height
5912 5911 5911 5911 5912 5911 5909 5909 5908 5907 5908 5907 5907 5907 5907 5908 5908 5910 5907 5905 5905 5904 5904 5903 5902 5902 5901 5901 5901 5900 5900 5900 5900 5900 5900 5900 5900 5900 5900 5901 5901 5901 5901 5901 5900 5900 5900 5900 5900
5912 5911 5911 5911 5910 5909 5909 5908 5908 5907 5907 5907 5907 5907 5907 5907 5906 5906 5905 5905 5904 5904 5903 5902 5902 5901 5901 5900 5900 5899 5899 5899 5899 5899 5899 5899 5899 5899 5899 5899 5900 5900 5900 5900 5899 5899 5899 5899 5899
5911 5910 5911 5910 5908 5908 5908 5908 5907 5907 5906 5906 5906 5906 5906 5906 5906 5905 5905 5904 5904 5903 5902 5902 5901 5900 5900 5899 5899 5898 5898 5898 5898 5898 5898 5898 5898 5898 5898 5898 5898 5898 5898 5898 5898 5898 5898 5898 5898
5910 5910 5909 5908 5906 5906 5906 5906 5906 5905 5905 5905 5905 5905 5905 5905 5905 5904 5904 5903 5903 5902 5901 5900 5899 5899 5898 5898 5897 5897 5897 5897 5897 5897 5897 5897 5896 5896 5896 5896 5896 5896 5896 5896 5896 5896 5896 5896 5897
5908 5908 5907 5905 5904 5903 5903 5903 5904 5904 5904 5903 5903 5903 5903 5904 5903 5903 5903 5902 5902 5901 5900 5899 5898 5897 5897 5896 5896 5896 5896 5896 5895 5895 5895 5895 5895 5895 5894 5894 5894 5894 5894 5894 5894 5894 5894 5894 5894
5906 5905 5904 5902 5901 5901 5900 5901 5901 5901 5901 5901 5902 5901 5902 5902 5902 5902 5901 5901 5900 5900 5899 5898 5897 5896 5895 5895 5894 5894 5894 5894 5894 5894 5893 5893 5893 5892 5892 5892 5891 5891 5891 5891 5890 5890 5891 5891 5891
5903 5902 5901 5899 5898 5897 5897 5897 5898 5898 5899 5899 5899 5899 5899 5900 5900 5900 5900 5899 5899 5898 5897 5896 5895 5894 5893 5893 5892 5892 5892 5892 5891 5891 5891 5890 5890 5890 5889 5889 5889 5888 5888 5887 5887 5887 5887 5887 5888
5898 5899 5897 5895 5894 5893 5893 5893 5894 5895 5895 5896 5896 5896 5897 5898 5897 5897 5897 5897 5897 5896 5895 5894 5893 5892 5891 5890 5890 5889 5889 5889 5889 5889 5888 5888 5887 5887 5887 5886 5886 5885 5885 5884 5884 5883 5883 5883 5884
5893 5894 5892 5891 5889 5889 5888 5889 5890 5891 5892 5893 5893 5894 5894 5895 5895 5895 5895 5894 5894 5893 5892 5891 5890 5889 5888 5887 5886 5886 5886 5885 5885 5885 5884 5884 5884 5883 5883 5883 5882 5882 5881 5880 5880 5879 5879 5879 5879
5886 5887 5887 5886 5885 5884 5884 5885 5886 5887 5889 5890 5890 5891 5891 5892 5892 5892 5892 5891 5890 5889 5888 5887 5887 5885 5884 5883 5883 5882 5881 5881 5880 5880 5880 5880 5879 5879 5879 5878 5878 5877 5876 5876 5875 5875 5874 5874 5874
5878 5880 5880 5880 5879 5880 5880 5881 5882 5883 5885 5886 5887 5888 5888 5889 5889 5889 5888 5887 5886 5885 5885 5884 5883 5881 5880 5880 5879 5877 5876 5875 5875 5875 5875 5875 5875 5874 5874 5873 5872 5872 5871 5871 5870 5869 5869 5869 5869
5872 5872 5873 5874 5874 5875 5876 5877 5878 5879 5881 5883 5883 5884 5885 5885 5885 5884 5884 5883 5882 5881 5880 5879 5878 5876 5875 5874 5874 5873 5872 5871 5871 5870 5870 5869 5869 5869 5868 5867 5866 5866 5865 5864 5864 5864 5863 5863 5863
5865 5866 5867 5868 5869 5870 5872 5873 5874 5875 5877 5878 5879 5880 5881 5881 5881 5881 5880 5878 5877 5876 5875 5874 5873 5872 5870 5869 5869 5868 5867 5865 5865 5864 5863 5863 5862 5862 5861 5861 5860 5859 5858 5858 5857 5857 5857 5856 5856
5861 5861 5862 5864 5865 5866 5868 5869 5871 5871 5873 5874 5875 5876 5876 5876 5877 5876 5876 5875 5873 5872 5871 5869 5868 5867 5866 5864 5863 5861 5860 5859 5858 5857 5857 5856 5855 5855 5854 5854 5853 5852 5851 5851 5851 5851 5850 5849 5850
5858 5858 5859 5860 5861 5862 5864 5866 5867 5868 5869 5870 5871 5871 5872 5872 5872 5872 5871 5870 5869 5867 5866 5864 5863 5862 5861 5860 5859 5857 5855 5854 5853 5852 5851 5850 5849 5848 5848 5847 5846 5845 5844 5844 5843 5843 5843 5843 5843
5857 5857 5857 5858 5858 5859 5863 5863 5864 5865 5866 5866 5867 5867 5867 5867 5866 5866 5866 5865 5864 5862 5861 5860 5858 5857 5856 5855 5854 5852 5850 5849 5848 5847 5846 5844 5843 5842 5841 5840 5839 5838 5837 5836 5836 5835 5836 5835 5835
5856 5856 5855 5856 5856 5857 5859 5859 5860 5861 5862 5862 5863 5863 5863 5862 5862 5861 5861 5861 5859 5858 5857 5855 5854 5852 5851 5850 5848 5847 5845 5844 5843 5841 5840 5838 5837 5835 5834 5833 5831 5830 5829 5828 5828 5828 5827 5827 5827
5856 5855 5854 5854 5854 5855 5855 5856 5857 5858 5858 5859 5859 5859 5858 5858 5857 5857 5857 5856 5855 5854 5852 5851 5850 5848 5846 5845 5844 5842 5841 5839 5837 5835 5833 5831 5829 5827 5826 5824 5823 5822 5821 5820 5819 5819 5819 5819 5819
5855 5854 5853 5853 5852 5853 5853 5854 5853 5853 5854 5855 5855 5854 5853 5853 5853 5853 5852 5851 5850 5849 5848 5847 5845 5843 5842 5840 5838 5836 5834 5832 5830 5828 5825 5823 5821 5819 5817 5816 5814 5813 5812 5810 5809 5809 5809 5809 5809
5854 5853 5852 5852 5851 5851 5851 5851 5850 5849 5849 5850 5850 5850 5850 5850 5849 5849 5848 5847 5847 5845 5843 5842 5840 5838 5836 5834 5831 5829 5827 5824 5822 5820 5817 5814 5812 5809 5807 5806 5804 5802 5801 5800 5799 5798 5798 5798 5799
5854 5853 5852 5851 5850 5850 5849 5849 5847 5846 5845 5846 5847 5847 5847 5847 5846 5845 5845 5844 5842 5841 5840 5838 5836 5833 5831 5828 5825 5822 5819 5816 5814 5811 5808 5805 5802 5800 5798 5796 5794 5792 5790 5789 5788 5788 5788 5788 5788
5854 5853 5852 5851 5850 5849 5849 5847 5845 5843 5843 5843 5844 5844 5844 5844 5843 5842 5842 5841 5839 5838 5836 5834 5832 5829 5826 5823 5819 5816 5812 5809 5806 5802 5799 5796 5793 5790 5788 5786 5784 5782 5780 5779 5778 5777 5777 5777 5777
5854 5853 5852 5851 5850 5849 5848 5847 5845 5843 5842 5842 5842 5841 5842 5842 5841 5840 5839 5838 5837 5835 5833 5831 5828 5824 5821 5817 5813 5809 5805 5801 5798 5794 5790 5787 5784 5781 5778 5776 5774 5772 5770 5769 5768 5767 5766 5766 5767
5854 5853 5852 5851 5850 5849 5848 5847 5845 5843 5842 5841 5841 5841 5841 5840 5839 5838 5837 5836 5834 5832 5830 5827 5823 5819 5815 5811 5807 5802 5798 5794 5790 5786 5782 5779 5775 5772 5769 5766 5764 5762 5760 5759 5757 5756 5756 5755 5756
5855 5854 5853 5851 5850 5850 5848 5847 5846 5844 5842 5841 5841 5840 5839 5838 5837 5836 5835 5833 5831 5828 5825 5822 5818 5813 5809 5804 5800 5795 5790 5786 5782 5778 5774 5770 5766 5762 5759 5756 5753 5751 5749 5747 5746 5745 5745 5744 5745
5854 5854 5853 5852 5850 5850 5848 5847 5847 5844 5843 5842 5841 5840 5838 5837 5836 5834 5832 5830 5827 5824 5820 5816 5811 5807 5802 5797 5792 5787 5783 5778 5773 5769 5765 5761 5757 5753 5749 5746 5742 5740 5738 5736 5735 5734 5733 5733 5734
5853 5852 5852 5851 5850 5849 5848 5847 5846 5844 5843 5841 5840 5838 5837 5835 5833 5831 5829 5826 5822 5818 5814 5809 5805 5800 5795 5790 5785 5780 5775 5770 5765 5760 5756 5751 5747 5743 5739 5735 5731 5728 5726 5724 5722 5722 5721 5721 5722
5852 5851 5851 5850 5849 5848 5847 5846 5845 5843 5841 5840 5838 5836 5835 5833 5830 5827 5824 5821 5817 5812 5808 5803 5798 5793 5788 5783 5778 5772 5767 5762 5757 5751 5746 5741 5736 5732 5728 5724 5720 5716 5714 5711 5710 5709 5708 5709 5709
5851 5851 5849 5849 5848 5847 5846 5847 5843 5841 5839 5838 5836 5834 5831 5829 5826 5823 5819 5815 5811 5807 5802 5797 5792 5787 5781 5776 5770 5765 5759 5753 5748 5742 5736 5731 5726 5721 5717 5712 5708 5705 5701 5699 5697 5696 5695 5695 5695
5849 5849 5848 5848 5847 5845 5844 5846 5841 5839 5837 5835 5833 5830 5827 5825 5822 5818 5814 5810 5806 5801 5796 5791 5786 5780 5774 5768 5763 5757 5751 5745 5739 5733 5727 5721 5716 5710 5705 5700 5696 5692 5689 5686 5684 5682 5681 5681 5681